Regional Weather Roundup
Issued by NWS

Home | Current Version | Previous Version | Graphics & Text | Print | Product List | Glossary On
Versions: 1 2 3 4 5 6 7 8 9 10 11 12 13 14 15 16 17 18 19 20 21 22 23 24 25 26 27 28 29 30 31 32 33 34 35 36 37 38 39 40 41 42 43 44 45 46 47 48 49 50
000
ASUS43 KBIS 162302
RWRND

NORTH DAKOTA REGIONAL WEATHER ROUNDUP
NATIONAL WEATHER SERVICE BISMARCK ND
600 PM CDT MON OCT 16 2017

NOTE: "FAIR" INDICATES FEW OR NO CLOUDS BELOW 12,000 FEET WITH NO
SIGNIFICANT WEATHER AND/OR OBSTRUCTIONS TO VISIBILITY.


NDZ001>003-009>011-017-170000-
NORTHWEST NORTH DAKOTA

CITY           SKY/WX    TMP DP  RH WIND       PRES   REMARKS
WILLISTON      CLEAR     66  31  27 W13       29.94R
MINOT          CLEAR     66  34  30 W12       29.90R
MINOT AFB      CLEAR     65  34  31 W8        29.88R
$$

NDZ018>021-031>035-040>046-170000-
SOUTHWEST NORTH DAKOTA

CITY           SKY/WX    TMP DP  RH WIND       PRES   REMARKS
BISMARCK       CLEAR     71  31  22 NW12G23   29.93S
DICKINSON      CLOUDY    64  31  28 W12       29.96S
GARRISON         N/A     64  33  31 NW17G25   29.92R
HETTINGER ARPT CLEAR     67  27  22 W16       30.01S
$$

NDZ004>008-012>016-024-026-027-054-170000-
NORTHEAST NORTH DAKOTA

CITY           SKY/WX    TMP DP  RH WIND       PRES   REMARKS
GRAND FORKS    PTCLDY    67  37  33 W10       29.83R
GRND FRKS AFB  CLEAR     64  35  35 W9        29.84R
DEVILS LAKE    CLOUDY    63  36  36 W10       29.88R
$$

NDZ022-023-025-028>030-036>039-047>053-170000-
SOUTHEAST NORTH DAKOTA

CITY           SKY/WX    TMP DP  RH WIND       PRES   REMARKS
FARGO          CLEAR     67  42  40 W9        29.86R
JAMESTOWN      CLEAR     66  34  30 NW12      29.88S
$$




USA.gov is the U.S. government's official web portal to all federal, state and local government web resources and services.